Hourly Data Report for October 01, 2015

All times are specified in Local Standard Time (LST). Add 1 hour to adjust for Daylight Saving Time where and when it is observed.

QIKIQTARJUAQ A
NUNAVUT

67°32'48.000" N
64°01'54.000" W
5.50 m
2400577
YVM

Download Data

Hourly Data (October 2015)
Hourly Data Report for October 1, 2015
Temp Definition
°C
Dew Point Temp Definition
°C
Rel Hum Definition
%
Wind Dir Definition
10's deg

Wind Spd Definition
km/h
Visibility Definition
km
Stn Press Definition
kPa
Hmdx Definition


Wind Chill Definition


Weather Definition


TIME
00:00 Legend Double Dagger 0.4 -5.4 65   0 16.1 101.81     LegendNANA
01:00 Legend Double Dagger -1.0 -6.2 68   0 16.1 101.81     LegendNANA
02:00 Legend Double Dagger -2.2 -5.8 77   0 16.1 101.88     LegendNANA
03:00 Legend Double Dagger -0.9 -5.3 72 7 5 16.1 101.93   -3 LegendNANA
04:00 Legend Double Dagger -2.1 -5.1 80   0 16.1 101.95     LegendNANA
05:00 Legend Double Dagger -3.2 -5.5 84 LegendMM 4 16.1 102.03   -5 LegendNANA
06:00 Legend Double Dagger -2.9 -4.9 86 12 5 16.1 102.07   -5 LegendNANA
07:00 Legend Double Dagger -3.0 -4.6 89   0 16.1 102.09     LegendNANA
08:00 Legend Double Dagger -0.8 -2.7 87   0 16.1 102.09     LegendNANA
09:00 Legend Double Dagger 0.1 -2.5 83   0 16.1 102.08     LegendNANA
10:00 Legend Double Dagger 0.6 -1.9 83 LegendMM 4 16.1 102.06     LegendNANA
11:00 Legend Double Dagger 0.4 -1.8 85   0 16.1 102.09     LegendNANA
12:00 Legend Double Dagger 0.2 -1.4 89 35 8 16.1 102.10     LegendNANA
13:00 Legend Double Dagger 0.2 -1.6 88   0 16.1 102.08     LegendNANA
14:00 Legend Double Dagger 0.5 -1.6 86   0 16.1 102.05     LegendNANA
15:00 Legend Double Dagger 0.8 -2.7 78 23 8 16.1 102.01     LegendNANA
16:00 Legend Double Dagger 0.6 -2.3 81 20 5 16.1 101.96     LegendNANA
17:00 Legend Double Dagger -0.1 -1.4 91 2 4 16.1 101.94   -1 LegendNANA
18:00 Legend Double Dagger 0.2 -2.0 85   0 16.1 101.87     LegendNANA
19:00 Legend Double Dagger 2.6 -5.7 54 20 15 16.1 101.70     LegendNANA
20:00 Legend Double Dagger 5.4 -5.7 45 16 26 16.1 101.52     LegendNANA
21:00 Legend Double Dagger 5.9 -4.3 48 16 32 16.1 101.37     LegendNANA
22:00 Legend Double Dagger 6.3 -3.3 50 17 21 16.1 101.26     Rain
23:00 Legend Double Dagger 4.1 -0.5 72 21 9 16.1 101.06     Rain

Notes on Data Quality.

Legend

  • E = Estimated
  • M = Missing
  • NA = Not Available
  • ‡ = Partner data that is not subject to review by the National Climate Archives
Date modified: